Location: Waning Moon II Observatory
(30.3730°N, 89.7620°W)
Time: 18:50:04
(UTC-05:00)

Cosmos 1825 Rocket - Visible Passes

Search period start: 02 September 2015 00:00
Search period end: 12 September 2015 00:00
Orbit: 605 x 631 km, 82.5° (Epoch: 01 September)

Date Brightness Start Highest point End Pass type
(mag) Time Alt. Az. Time Alt. Az. Time Alt. Az.
02 Sep 6.1 20:38:52 10° NW 20:42:26 23° W 20:45:52 10° SW visible
03 Sep 6.9 20:57:49 10° WNW 20:59:24 11° W 21:00:42 10° WSW visible
04 Sep 3.6 19:34:33 10° N 19:39:01 88° E 19:43:29 10° S visible
05 Sep 4.9 19:51:49 10° NNW 19:56:04 44° W 20:00:18 10° SSW visible
06 Sep 6.3 20:09:34 10° NW 20:13:04 22° W 20:16:27 10° SW visible
07 Sep 7.1 20:28:40 10° WNW 20:30:02 11° W 20:31:06 10° WSW visible
10 Sep 6.6 19:40:15 10° NW 19:43:42 21° W 19:47:01 10° SW visible
11 Sep 7.4 19:59:35 10° WNW 20:00:41 11° W 20:01:26 10° W visible
